Temperature
19 19 18 18 17 17 17 17 17 17 17 17 17 17 17 17 17 17 17 17 17 17 16 16 16 16 16 16 16 15 15 15 15 15 15 15 15 15 15 15 15 15 15
19 18 18 17 17 17 17 17 17 17 17 17 17 17 17 17 17 17 17 17 17 16 16 16 16 16 16 16 16 15 15 15 15 15 15 15 15 15 15 15 15 15 15
18 18 17 17 17 17 17 17 17 17 17 17 17 17 17 17 17 17 17 17 16 16 16 16 16 16 16 16 16 15 15 15 15 15 15 15 15 15 15 15 14 15 14
18 17 17 17 17 17 17 17 17 17 16 16 16 16 16 16 16 17 17 17 16 16 16 16 16 16 16 16 16 15 15 15 15 15 15 15 15 15 15 14 14 14 14
17 17 17 17 16 16 16 16 16 16 16 16 16 16 16 16 16 16 16 16 16 16 16 16 16 16 16 16 16 15 15 15 15 15 15 15 15 15 15 15 15 14 14
17 17 17 16 16 16 16 16 16 16 16 16 16 16 16 16 16 16 16 16 16 16 16 16 16 16 16 16 16 15 15 15 15 15 15 15 15 14 14 14 14 14 14
17 16 16 16 16 16 16 16 16 16 16 16 16 16 16 16 16 16 16 16 16 16 16 16 16 16 16 16 16 15 15 15 15 15 15 15 14 14 14 14 14 14 14
16 16 16 16 16 16 16 16 16 16 16 16 16 16 16 16 16 16 16 16 16 16 16 16 16 16 16 16 16 15 15 15 15 15 14 14 14 14 14 14 14 14 14
16 16 15 16 16 16 16 16 16 16 16 16 16 16 16 16 16 16 16 16 16 16 16 16 16 16 16 16 15 15 15 15 15 15 14 14 14 14 14 14 13 13 13
15 15 15 15 15 15 15 15 16 16 16 16 16 16 16 15 15 16 16 16 16 16 16 16 16 16 15 15 15 15 15 15 14 14 14 14 14 14 13 13 13 13 13
14 15 15 15 15 15 15 15 15 15 15 15 15 15 15 15 15 15 15 15 16 16 16 16 16 16 15 15 15 15 15 15 14 14 14 14 14 14 13 13 13 13 13
14 14 14 15 15 15 15 15 15 15 15 15 15 15 15 15 15 15 15 15 15 15 15 15 15 15 15 15 15 15 15 14 14 14 14 14 14 13 13 13 13 13 13
14 14 14 14 15 15 15 15 15 15 15 15 15 15 15 15 15 15 15 15 15 15 15 15 15 15 15 15 15 15 14 14 14 14 14 14 13 13 13 13 13 13 13
13 14 14 14 14 14 15 15 15 15 15 15 15 15 15 15 15 15 15 15 15 15 15 15 15 15 15 15 15 15 14 14 14 14 14 14 13 13 13 13 13 13 13
13 13 14 14 14 14 14 14 14 14 15 15 15 15 15 15 15 15 15 15 15 15 15 15 15 15 15 15 14 14 14 14 14 14 14 14 13 13 13 13 13 13 13
13 13 13 13 14 14 14 14 14 14 14 15 15 15 14 15 15 15 15 15 15 15 15 15 15 15 15 14 14 14 14 14 14 14 14 14 13 13 13 13 13 13 13
12 13 13 13 13 13 14 14 14 14 14 14 14 14 14 14 15 14 14 15 15 15 15 15 15 14 14 14 14 14 14 14 14 14 13 13 13 13 13 13 13 13 13
12 12 13 13 13 13 13 13 13 14 14 14 14 14 14 14 14 14 14 14 15 14 14 14 14 14 14 14 14 14 14 14 14 13 13 13 13 13 13 13 13 13 13
12 12 12 12 12 13 13 13 13 13 14 14 14 14 14 14 14 14 14 14 14 14 14 14 14 14 14 14 14 14 13 13 13 13 13 13 13 13 13 13 13 13 12
11 11 12 12 12 12 12 12 12 13 13 13 13 14 14 14 14 14 14 14 14 14 14 14 14 14 14 13 13 13 13 13 13 13 13 13 13 13 13 13 13 13 12
11 11 11 11 12 12 12 12 12 12 13 13 13 13 13 13 13 13 13 13 13 13 13 13 13 13 13 13 13 13 13 13 13 13 13 13 13 13 12 12 12 12 12
10 11 11 11 11 12 12 12 12 12 12 12 13 13 13 13 13 13 13 13 13 13 13 13 13 13 13 12 12 12 12 12 13 13 13 12 12 12 12 12 12 12 12
10 10 11 11 11 11 11 11 11 11 12 12 12 12 12 13 13 13 13 13 13 13 13 13 13 13 12 12 12 12 12 12 12 12 12 12 12 12 12 12 12 12 12
10 10 10 10 10 11 11 11 11 11 11 12 12 12 12 12 12 12 12 12 12 12 13 12 12 12 12 12 12 12 12 12 12 12 12 12 12 12 12 12 11 11 11
9 10 10 10 10 10 11 11 11 11 11 11 11 11 12 12 12 12 12 12 12 12 12 12 12 12 12 12 12 12 11 11 11 11 11 12 11 12 11 11 11 11 11
8 9 9 10 10 10 10 10 10 11 11 11 11 11 11 11 11 11 11 11 12 12 12 12 12 11 11 11 11 11 11 11 11 11 11 11 11 11 11 11 11 11 11
Wind_Speed
3 9 18 19 19 18 18 18 18 18 19 19 20 20 20 20 19 19 18 17 17 17 17 17 17 17 17 16 16 16 15 15 15 15 15 15 14 14 14 14 13 13 14
4 11 18 19 19 19 18 18 17 17 18 19 19 19 19 19 19 19 18 17 17 17 17 17 17 17 17 16 16 15 15 15 15 15 14 13 13 14 13 13 12 12 13
5 11 16 18 18 18 18 17 17 17 18 18 19 19 19 19 19 18 18 17 17 17 17 17 17 17 16 16 15 14 14 14 14 13 12 10 11 12 12 12 12 12 12
5 10 14 18 18 18 18 18 17 17 18 18 18 18 18 18 18 18 18 17 17 17 17 17 17 16 15 15 14 14 13 13 12 11 10 9 9 10 11 11 11 12 11
4 7 11 17 18 18 18 18 18 18 18 18 18 18 18 18 18 18 17 17 17 17 17 17 16 15 15 14 14 13 12 12 11 10 9 8 8 9 10 10 10 10 10
3 6 9 14 17 18 18 18 18 18 18 18 18 18 18 18 17 17 17 17 17 17 17 16 16 15 14 13 13 12 11 11 11 9 7 6 6 8 9 9 9 9 9
2 3 8 13 15 17 18 18 18 18 18 18 18 18 18 18 17 17 17 17 17 17 16 16 15 14 13 12 12 11 11 11 10 8 6 5 5 7 8 7 7 7 7
1 2 4 11 13 15 17 18 19 19 18 19 18 18 18 18 17 17 17 17 17 16 16 15 14 13 12 12 11 11 10 9 8 6 5 4 5 5 6 6 6 6 6
1 1 1 5 9 12 14 17 18 19 18 18 18 17 17 17 17 17 17 17 17 16 16 15 13 12 11 11 10 10 9 8 8 6 4 3 4 4 4 4 4 4 4
1 0 1 2 4 7 10 14 16 18 18 18 17 16 16 17 17 18 18 17 17 16 15 14 13 11 10 10 9 9 8 8 6 5 3 3 3 3 3 2 2 2 1
2 1 1 2 2 4 8 11 14 15 15 16 15 16 15 13 15 15 16 17 16 15 15 14 12 11 9 9 9 8 8 7 6 4 4 4 4 3 3 2 2 1 1
4 4 3 3 3 3 6 7 9 10 11 12 12 13 12 11 12 13 15 16 16 15 14 13 11 10 8 7 7 7 6 6 5 4 4 5 4 4 3 2 2 2 2
6 5 5 4 3 3 3 4 5 7 8 9 11 13 12 10 10 10 10 12 12 12 10 10 9 7 7 6 5 5 5 5 5 5 5 5 5 4 4 3 3 3 2
6 7 6 5 5 4 4 4 5 5 6 6 10 13 11 7 6 7 7 9 9 9 8 7 6 6 6 6 6 5 5 5 5 5 5 5 5 5 4 4 3 3 3
8 8 7 6 6 5 4 4 5 6 6 8 10 12 13 7 7 6 6 8 8 9 8 6 5 5 4 4 4 5 4 5 5 5 5 5 5 5 5 4 4 4 3
10 9 8 7 7 6 6 5 5 6 7 8 9 12 14 11 8 7 6 6 7 9 9 7 6 4 3 3 2 3 4 5 5 5 6 5 5 5 5 4 4 4 4
10 9 9 8 8 8 8 7 5 6 7 7 8 12 14 13 11 8 7 7 7 9 9 7 5 4 3 2 3 3 3 4 5 6 6 5 5 5 5 5 4 4 4
9 9 9 8 8 8 8 7 6 5 6 7 8 10 13 13 13 9 7 7 8 9 7 5 5 4 3 3 2 2 2 2 4 5 5 5 5 5 5 4 3 3 3
9 9 9 8 8 8 7 6 6 6 6 6 8 8 11 12 13 9 7 6 9 6 5 6 5 4 4 3 2 2 2 2 3 4 4 5 6 6 5 4 4 3 2
8 9 9 8 8 7 5 5 4 5 5 6 6 8 10 11 12 9 6 7 7 6 6 6 5 4 3 4 2 1 1 2 2 3 4 4 5 6 6 5 4 3 3
7 8 9 9 8 6 5 5 6 6 6 6 6 7 9 10 10 8 6 7 7 7 7 7 5 5 3 3 2 0 1 1 3 2 2 3 4 6 6 6 5 4 3
6 7 7 8 8 8 7 5 4 4 5 5 5 6 8 9 9 8 8 7 7 7 7 7 6 4 3 5 3 2 1 2 2 2 3 4 4 4 5 6 6 6 5
5 6 6 7 7 7 7 5 4 3 3 3 5 5 6 7 8 7 8 7 7 7 7 8 8 7 5 4 4 4 3 4 2 2 3 4 4 4 4 5 6 6 6
3 3 4 5 5 5 6 6 7 5 4 4 4 4 5 6 6 7 7 7 7 7 7 8 8 6 6 5 4 3 3 3 3 2 2 3 4 5 5 4 5 6 7
1 2 3 3 3 3 4 6 7 5 4 3 3 4 4 5 5 5 6 6 7 7 7 7 7 7 6 6 5 3 2 1 2 3 4 3 3 4 5 5 5 7 8
3 2 3 3 2 2 4 4 5 5 5 5 4 4 4 3 3 4 4 5 6 6 7 7 8 8 7 7 6 5 4 4 4 4 4 4 4 3 4 4 5 6 8
Wind_Direction
189 171 168 162 161 159 157 154 150 146 143 142 142 142 142 141 140 140 139 136 133 129 125 122 120 118 115 112 107 103 98 93 91 89 87 87 88 88 85 81 76 72 74
176 170 170 165 164 163 161 158 153 150 148 146 146 145 145 144 144 143 142 139 136 133 130 126 123 119 115 111 107 103 100 95 92 90 86 85 88 89 86 84 83 79 76
155 167 170 167 167 166 163 160 157 155 153 152 150 150 149 148 147 146 145 144 140 136 133 130 126 121 117 114 110 106 104 99 95 91 85 83 87 89 87 83 82 80 78
154 164 170 170 170 170 167 164 162 161 160 157 155 154 154 153 151 150 147 146 142 138 135 131 127 123 121 118 115 110 107 104 100 93 83 80 87 92 89 84 79 76 75
143 157 169 173 175 174 172 169 167 166 164 162 160 159 158 157 155 153 150 147 143 140 137 133 129 126 124 123 119 114 110 108 104 96 88 81 85 93 92 87 82 77 74
136 154 169 176 181 179 175 173 171 170 169 168 166 164 163 161 160 157 152 147 143 141 140 137 134 131 129 127 124 118 114 113 108 103 95 88 90 98 97 92 87 83 78
131 158 175 178 185 186 182 177 176 176 175 173 171 169 167 166 164 159 154 150 146 146 145 143 140 136 134 132 127 122 119 118 118 112 105 101 105 106 103 98 92 87 81
137 155 176 186 187 190 187 182 180 179 179 177 175 175 173 170 167 162 159 156 153 152 151 150 146 142 139 136 132 129 127 123 124 124 121 122 123 113 109 105 99 91 84
97 123 178 190 190 193 193 190 186 183 182 180 178 178 176 171 168 165 164 161 159 158 157 155 152 148 144 141 138 136 136 134 133 136 141 147 141 127 117 115 110 100 89
22 104 202 181 191 194 195 197 191 186 183 180 178 178 175 172 169 167 166 165 164 163 162 161 158 154 150 147 146 143 142 142 145 149 161 179 171 156 144 139 136 137 125
302 276 232 192 188 196 195 198 192 184 182 180 177 172 169 169 167 168 169 167 167 166 166 166 163 159 154 152 152 151 148 154 160 171 190 200 193 184 182 184 185 194 201
266 259 240 216 204 198 201 193 187 182 179 177 172 167 164 164 166 167 170 170 170 169 170 171 168 163 154 151 154 155 157 166 175 194 212 215 211 205 204 208 214 223 230
256 257 246 226 214 201 197 186 182 175 173 173 169 165 162 161 162 162 166 171 170 169 169 172 166 163 160 160 159 163 170 178 192 210 226 229 225 219 217 222 229 233 229
250 252 248 234 222 212 194 188 187 175 172 174 175 170 165 163 163 165 169 171 170 172 170 169 166 165 167 169 171 174 182 191 202 216 228 230 232 232 229 229 234 241 231
239 244 244 232 221 212 199 198 191 183 180 179 178 177 174 170 173 172 172 175 176 175 176 173 171 169 171 175 184 187 195 203 209 215 226 232 232 233 234 236 238 243 234
236 236 234 225 221 210 203 200 200 186 181 180 182 183 180 178 177 177 176 179 182 183 183 181 178 174 177 178 190 196 204 208 210 213 220 226 229 230 233 237 240 242 237
234 231 227 225 218 211 205 201 201 190 181 182 187 187 186 184 180 179 180 183 185 183 178 174 168 164 171 183 204 208 208 206 207 211 213 215 219 225 229 235 237 239 228
232 228 226 226 214 209 208 199 195 191 184 184 185 187 188 186 182 177 181 185 181 177 176 175 173 172 184 188 198 214 210 203 207 209 208 208 209 213 222 226 227 232 227
225 224 224 218 213 206 203 195 189 188 187 182 181 184 186 184 181 178 181 182 176 175 179 184 181 176 186 188 192 203 216 222 215 202 202 207 206 206 209 214 213 223 224
225 219 219 215 213 203 193 184 184 190 189 182 182 184 182 181 180 178 180 180 176 178 183 184 181 177 180 173 173 195 239 239 222 208 206 200 201 204 207 205 200 204 208
225 215 211 209 208 191 184 182 183 194 191 187 189 184 182 179 179 178 183 179 181 187 188 183 178 177 177 154 133 289 298 244 223 219 204 195 197 198 199 199 195 187 187
227 217 211 207 204 196 189 178 171 174 182 181 182 182 179 178 180 183 184 187 187 189 189 188 179 177 184 176 160 149 262 284 247 214 209 210 209 192 189 191 188 186 186
241 218 207 202 199 194 185 163 147 138 139 169 179 183 179 174 178 180 182 183 188 190 196 196 190 186 191 196 192 175 186 226 255 238 217 210 203 201 202 192 193 193 191
261 218 190 190 191 186 174 165 167 175 177 177 178 180 176 176 180 182 186 186 189 192 195 199 197 194 184 196 208 214 205 177 190 240 247 223 213 211 206 201 195 197 197
298 177 166 169 178 176 165 169 168 171 169 153 149 163 175 180 180 183 187 194 194 197 201 199 200 200 198 198 197 194 199 218 202 208 246 245 241 231 215 206 199 200 199
35 75 114 135 139 142 147 158 167 166 159 157 160 170 177 177 177 183 191 201 200 202 204 205 205 206 209 208 208 202 194 198 206 203 229 239 239 237 223 213 210 206 203
Height
1492 1494 1496 1498 1501 1504 1506 1509 1511 1514 1516 1518 1520 1522 1524 1525 1527 1528 1530 1531 1532 1533 1534 1535 1537 1538 1539 1540 1541 1541 1542 1543 1543 1544 1544 1544 1545 1545 1545 1545 1545 1545 1545
1492 1493 1496 1498 1501 1503 1506 1509 1512 1514 1516 1518 1520 1522 1524 1525 1527 1529 1530 1531 1533 1534 1535 1537 1538 1539 1540 1541 1542 1543 1544 1544 1545 1545 1546 1546 1546 1546 1546 1547 1547 1546 1546
1492 1493 1496 1498 1501 1504 1506 1509 1512 1514 1516 1518 1520 1522 1524 1526 1527 1529 1530 1532 1534 1535 1536 1538 1539 1540 1541 1542 1543 1544 1545 1546 1546 1547 1547 1547 1548 1548 1548 1548 1548 1548 1548
1492 1494 1496 1499 1501 1504 1506 1509 1511 1514 1516 1518 1520 1522 1524 1526 1528 1529 1531 1532 1534 1536 1537 1539 1540 1541 1542 1543 1544 1545 1546 1547 1547 1548 1548 1549 1549 1549 1549 1549 1549 1549 1549
1492 1494 1496 1499 1501 1504 1506 1509 1511 1513 1516 1518 1520 1522 1524 1526 1528 1529 1531 1533 1534 1536 1538 1539 1541 1542 1543 1544 1545 1546 1547 1548 1549 1549 1550 1550 1550 1550 1550 1550 1550 1550 1550
1493 1494 1496 1498 1501 1503 1506 1508 1510 1513 1515 1518 1520 1522 1524 1526 1528 1530 1531 1533 1535 1537 1538 1540 1542 1543 1544 1545 1546 1547 1548 1549 1550 1550 1551 1551 1551 1551 1551 1551 1551 1551 1550
1493 1494 1496 1498 1500 1503 1505 1507 1510 1512 1515 1517 1519 1522 1524 1526 1528 1530 1531 1533 1535 1537 1539 1540 1542 1544 1545 1546 1547 1548 1549 1550 1550 1551 1551 1552 1552 1552 1552 1552 1552 1551 1551
1493 1494 1496 1497 1499 1502 1505 1507 1509 1511 1514 1516 1519 1521 1523 1525 1527 1529 1531 1533 1535 1537 1539 1541 1542 1544 1545 1546 1547 1548 1549 1550 1551 1552 1552 1552 1552 1552 1552 1552 1552 1552 1551
1492 1493 1495 1497 1499 1501 1503 1506 1508 1510 1513 1515 1518 1520 1523 1525 1527 1529 1531 1533 1535 1537 1539 1541 1542 1544 1545 1547 1548 1549 1550 1551 1551 1552 1552 1552 1552 1553 1553 1552 1552 1552 1551
1491 1492 1494 1496 1497 1499 1502 1504 1506 1509 1511 1514 1517 1519 1521 1524 1526 1528 1531 1533 1535 1537 1539 1540 1542 1544 1545 1547 1548 1549 1550 1551 1551 1552 1552 1552 1552 1552 1552 1552 1552 1552 1551
1489 1490 1492 1494 1496 1498 1500 1502 1505 1507 1510 1512 1515 1518 1520 1523 1525 1527 1530 1532 1535 1537 1538 1540 1542 1543 1545 1546 1548 1549 1550 1550 1551 1551 1552 1552 1552 1552 1552 1552 1551 1551 1551
1486 1488 1490 1491 1493 1495 1497 1499 1502 1505 1507 1510 1513 1516 1518 1521 1523 1526 1529 1531 1534 1536 1538 1540 1541 1543 1544 1546 1547 1548 1549 1550 1550 1551 1551 1551 1551 1551 1551 1551 1550 1550 1550
1483 1485 1486 1488 1490 1492 1494 1496 1499 1502 1505 1508 1511 1514 1516 1519 1521 1524 1527 1529 1532 1534 1536 1538 1540 1542 1543 1545 1546 1547 1548 1549 1550 1550 1550 1550 1550 1550 1550 1550 1550 1549 1549
1479 1481 1483 1485 1487 1489 1491 1493 1496 1498 1501 1504 1508 1511 1514 1516 1519 1522 1524 1527 1530 1532 1535 1537 1539 1541 1542 1544 1545 1546 1547 1548 1549 1549 1549 1549 1549 1549 1549 1549 1549 1548 1548
1475 1477 1479 1481 1483 1485 1487 1490 1492 1495 1498 1501 1504 1508 1511 1514 1516 1519 1522 1525 1527 1530 1533 1535 1537 1539 1541 1542 1544 1545 1546 1546 1547 1548 1548 1548 1548 1548 1548 1548 1547 1547 1546
1470 1472 1474 1476 1478 1481 1483 1486 1488 1491 1494 1497 1500 1504 1508 1511 1514 1517 1519 1522 1525 1528 1530 1533 1535 1537 1539 1541 1542 1543 1544 1544 1545 1546 1546 1546 1546 1546 1546 1546 1546 1545 1545
1465 1467 1469 1471 1474 1476 1478 1481 1484 1487 1490 1494 1497 1500 1504 1507 1510 1514 1517 1519 1522 1525 1528 1530 1533 1535 1537 1538 1540 1541 1542 1542 1543 1543 1544 1544 1544 1544 1544 1544 1544 1543 1543
1459 1461 1464 1467 1469 1471 1474 1477 1480 1483 1487 1490 1493 1497 1500 1503 1506 1510 1513 1516 1519 1522 1525 1527 1530 1532 1534 1536 1537 1538 1539 1540 1540 1541 1541 1542 1542 1542 1542 1541 1541 1541 1541
1454 1456 1458 1461 1464 1467 1469 1472 1476 1479 1482 1486 1489 1492 1496 1499 1503 1506 1509 1513 1516 1519 1521 1524 1527 1529 1531 1532 1534 1535 1536 1537 1538 1538 1539 1539 1539 1539 1539 1539 1539 1538 1538
1448 1450 1452 1455 1458 1462 1464 1468 1471 1474 1476 1481 1484 1488 1491 1495 1498 1502 1506 1509 1512 1515 1518 1521 1523 1525 1527 1529 1531 1532 1533 1533 1534 1534 1535 1535 1536 1536 1536 1536 1535 1535 1535
1443 1444 1446 1449 1452 1456 1459 1463 1466 1469 1472 1476 1480 1484 1488 1491 1494 1498 1501 1505 1508 1511 1513 1516 1519 1521 1523 1525 1527 1528 1528 1529 1530 1530 1531 1532 1532 1532 1532 1532 1532 1532 1532
1437 1439 1441 1444 1447 1451 1454 1458 1461 1465 1468 1472 1476 1480 1483 1486 1490 1493 1497 1500 1503 1507 1509 1512 1514 1516 1518 1521 1522 1523 1524 1525 1524 1526 1526 1527 1528 1528 1528 1529 1529 1529 1528
1433 1435 1437 1440 1443 1446 1450 1453 1457 1461 1463 1467 1471 1475 1478 1482 1485 1489 1492 1495 1498 1502 1504 1507 1509 1511 1513 1516 1518 1519 1520 1519 1520 1520 1521 1522 1523 1523 1524 1524 1524 1524 1524
1429 1430 1434 1437 1440 1443 1446 1449 1452 1456 1458 1462 1466 1470 1474 1478 1481 1484 1487 1490 1493 1496 1499 1501 1504 1506 1508 1510 1512 1514 1516 1515 1516 1515 1516 1517 1518 1518 1518 1519 1519 1519 1519
1425 1427 1430 1433 1436 1439 1443 1446 1449 1453 1456 1459 1463 1466 1470 1473 1476 1480 1483 1486 1488 1491 1493 1496 1498 1501 1503 1504 1506 1508 1509 1511 1511 1511 1510 1511 1512 1512 1513 1513 1514 1514 1514
1423 1425 1427 1430 1434 1436 1440 1444 1446 1449 1452 1456 1459 1462 1465 1469 1472 1475 1478 1481 1483 1485 1488 1490 1493 1495 1497 1499 1501 1502 1503 1505 1505 1505 1505 1505 1505 1506 1507 1507 1507 1508 1508